Hurghada, Egypt

8:06 AM EET on April 26, 2018 (GMT +0200)
Hurghada

Weather History for HEGN - September, 2013

Change the Weather History Date:

Monday, September 30, 2013

  Actual Average Record
Temperature  
Mean Temperature 80 °F -  
Max Temperature 87 °F 85 °F 105 °F (2015)
Min Temperature 72 °F 71 °F 69 °F (2003)
Cooling Degree Days 14    
Growing Degree Days 30 (Base 50)    
Moisture  
Dew Point 57 °F    
Average Humidity 44    
Maximum Humidity 57    
Minimum Humidity 29    
Precipitation  
Precipitation 0.00 in - - ()
Sea Level Pressure  
Sea Level Pressure 29.81 in    
Wind  
Wind Speed 12 mph ()    
Max Wind Speed 21 mph    
Max Gust Speed -    
Visibility 6.0 miles    
Events      
Averages and records for this station are not official NWS values.
T = Trace of Precipitation, MM = Missing Value Source: Averaged Metar Reports

Daily Weather History Graph

Daily Weather History Graph

Search for Another Location

Airport or City:

Astronomy

Sep. 30, 2013 Rise Set
Actual Time 5:37 AM EET 5:32 PM EET
Civil Twilight 5:14 AM EET 5:55 PM EET
Nautical Twilight 4:47 AM EET 6:22 PM EET
Astronomical Twilight 4:19 AM EET 6:49 PM EET
Moon 1:16 AM EET (9/30) 2:32 PM EET (9/30)
Length of Visible Light 12h 41m
Length of Day
11h 55m
Waning Crescent, 21% of the Moon is Illuminated
Sep 30
Waning Crescent
Oct 5
New
Oct 12
First Quarter
Oct 19
Full
Oct 27
Last Quarter

Hourly Weather History & Observations

Time (EET) Temp. Heat Index Dew Point Humidity Pressure Visibility Wind Dir Wind Speed Gust Speed Precip Events Conditions
12:00 AM 77.0 °F - 59.0 °F 54% 29.83 in - WNW 15.0 mph - N/A   Clear
1:00 AM 77.0 °F - 48.2 °F 36% 29.80 in - WNW 17.3 mph - N/A   Clear
2:00 AM 76 °F - 50 °F 29% 29.81 in 6 mi WNW 16.1 mph - -  
2:00 AM 77.0 °F - 50.0 °F 39% 29.80 in - WNW 16.1 mph - N/A   Clear
3:00 AM 77.0 °F - 48.2 °F 36% 29.80 in - WNW 13.8 mph - N/A   Clear
4:00 AM 75.2 °F - 53.6 °F 47% 29.83 in - WNW 15.0 mph - N/A   Clear
5:00 AM 73.4 °F - 53.6 °F 50% 29.83 in - WNW 15.0 mph - N/A   Clear
6:00 AM 71.6 °F - 55.4 °F 57% 29.83 in - WNW 12.7 mph - N/A   Clear
7:00 AM 73.4 °F - 55.4 °F 53% 29.86 in - WNW 9.2 mph - N/A   Clear
8:00 AM 78 °F - 58 °F 40% 29.87 in 6 mi WNW 11.5 mph - -  
8:00 AM 78.8 °F - 59.0 °F 51% 29.86 in - WNW 11.5 mph - N/A   Clear
9:00 AM 80.6 °F 81.1 °F 59.0 °F 48% 29.86 in - North 16.1 mph - N/A   Clear
10:00 AM 84.2 °F 83.8 °F 59.0 °F 42% 29.86 in - North 20.7 mph - N/A   Clear
11:00 AM 84.2 °F 83.8 °F 59.0 °F 42% 29.86 in - North 20.7 mph - N/A   Clear
12:00 PM 86.0 °F 86.1 °F 60.8 °F 43% 29.80 in - North 15.0 mph - N/A   Clear
1:00 PM 86.0 °F 86.6 °F 62.6 °F 45% 29.77 in - North 16.1 mph - N/A   Clear
2:00 PM 87 °F - 61 °F 31% 29.78 in 6 mi North 16.1 mph - -  
2:00 PM 87.8 °F 87.6 °F 60.8 °F 40% 29.77 in - North 16.1 mph - N/A   Clear
3:00 PM 87.8 °F 87.1 °F 59.0 °F 38% 29.77 in - North 11.5 mph - N/A   Clear
4:00 PM 86.0 °F 85.4 °F 59.0 °F 40% 29.77 in - North 9.2 mph - N/A   Clear
5:00 PM 84.2 °F 84.4 °F 60.8 °F 45% 29.77 in - NW 9.2 mph - N/A   Clear
6:00 PM 84.2 °F 84.4 °F 60.8 °F 45% 29.77 in - NW 6.9 mph - N/A   Clear
7:00 PM 80.6 °F 81.5 °F 60.8 °F 51% 29.80 in - Calm Calm - N/A   Clear
8:00 PM 80 °F - 56 °F 34% 29.81 in 6 mi NW 6.9 mph - -  
8:00 PM 80.6 °F 80.8 °F 57.2 °F 45% 29.80 in - NW 6.9 mph - N/A   Clear
9:00 PM 78.8 °F - 62.6 °F 57% 29.80 in - NW 6.9 mph - N/A   Clear
10:00 PM 77.0 °F - 53.6 °F 44% 29.80 in - WNW 11.5 mph - N/A   Clear
11:00 PM 77.0 °F - 53.6 °F 44% 29.80 in - WNW 16.1 mph - N/A   Clear